www.pogodaiklimat.ru

Погода и климат >> Архив погоды >> Индия >> Чхаттисгарх >> Райпур


ПОГОДА в Райпуре

  • Прогноз погоды в Райпуре
  • Монитор погоды в Райпуре

АРХИВ ПОГОДЫ в Райпуре

Время (UTC), дата Ветер
(напр.,м/с)
 
Видим.   Явления Облачность Т
(С)
Тd
(С)
f
(%)
Тe
(С)
Тes
(С)
Комфортность P
(гПа)
Po
(гПа)
Тmin
(С)
Tmax
(С)
R
(мм)
R24
(мм)
S
(см)
21 10.02 З 49 2100 м 4/0
[Ci fib]
+11.6 +5.5 66 +4 +4 1018.4 982.6
00 11.02 штиль 0 29 км 4/4 1500 м
[]
+10.2 +3.3 62 +10 +10 1020.0 947.1
03 11.02 СВ 2 4000 м мгла ясно +15.4 +7.4 59 +15 +20 1020.3 984.9 +12.9
06 11.02 ЮВ 2 4000 м ясно +24.4 +6.2 31 +24 +40 комфорт 1019.4 985.1
09 11.02 З 1 4000 м ясно +27.4 +4.8 24 +26 +37 жарко 1015.8 982.0
12 11.02 С 1 4000 м ясно +27.0 +5.3 25 +26 +26 жарко 1015.9 982.0 +28.4
15 11.02 штиль 0 4000 м ясно +20.0 +9.5 51 +21 +21 комфорт 1018.4 983.6
03 12.02 В 1 4000 м мгла ясно +17.6 +9.2 58 +19 +24 1020.2 985.1 +14.2
06 12.02 В 1 4000 м ясно +26.6 +6.4 28 +26 +43 жарко 1019.2 985.2
09 12.02 ЮВ 1 4000 м ясно +28.8 +4.8 22 +27 +38 жарко 1016.5 982.8
12 12.02 штиль 0 4000 м ясно +28.6 +9.2 30 +29 +29 жарко 1016.0 982.3 +30.0
15 12.02 штиль 0 4000 м ясно +22.0 +12.5 55 +25 +25 комфорт 1018.8 984.2
18 12.02 штиль 0 3400 м 4/4 1000 м
[]
+23.6 +1.5 23 +23 +23 комфорт 1016.8 982.5
21 12.02 штиль 0 3400 м 4/4 1000 м
[]
+22.8 +3.4 28 +23 +23 комфорт 1016.5 982.1
00 13.02 штиль 0 3400 м 4/4 1000 м
[]
+21.0 +2.8 30 +21 +21 комфорт 1016.0 981.4
03 13.02 СВ 2 4000 м мгла ясно +19.0 +11.4 61 +21 +26 комфорт 1020.9 985.9 +15.6
06 13.02 С 1 4000 м ясно +28.0 +10.3 33 +28 +46 жарко 1019.0 985.1
09 13.02 В 1 4000 м ясно +31.4 +10.1 27 +31 +42 жарко 1015.0 981.6
12 13.02 штиль 0 4000 м ясно +29.8 +10.6 30 +30 +30 жарко 1014.6 981.1 +31.6
15 13.02 штиль 0 4000 м ясно +23.4 +13.0 52 +26 +26 жарко 1016.5 982.2
18 13.02 штиль 0 29 км 4/4 1500 м
[]
+18.0 +8.4 53 +18 +18 1017.8 946.9
21 13.02 ЮЗ 1 4000 м ясно +18.0 +14.6 81 +19 +19 1015.2 980.3
03 14.02 В 1 2000 м мгла ясно +20.0 +14.5 71 +23 +29 комфорт 1017.6 982.9 +16.7
06 14.02 ЮВ 2 4000 м мгла ясно +29.8 +9.6 28 +29 +46 жарко 1015.4 981.8
09 14.02 Ю 1 4000 м ясно +32.0 +8.9 24 +31 +42 жарко 1012.7 979.5
12 14.02 ЮВ 1 4000 м ясно +31.8 +9.7 26 +31 +31 жарко 1011.2 978.0 +33.0
15 14.02 штиль 0 4000 м ясно +24.4 +12.2 46 +26 +26 жарко 1013.9 979.8
18 14.02 ЮЗ 1 4000 м ясно +20.2 +8.3 46 +22 +22 комфорт 1015.4 980.8
21 14.02 штиль 0 3400 м 4/4 1000 м
[]
+18.2 +10.8 62 +18 +18 1014.8 979.9
00 15.02 штиль 0 3400 м 4/4 1000 м
[]
+17.0 +12.7 76 +17 +17 1014.9 979.9
03 15.02 штиль 0 4000 м мгла 1/0
[Ac trans]
+21.2 +12.4 57 +23 +30 комфорт 1015.6 981.1 +18.3
06 15.02 Ю 2 4000 м мгла 5/0
[Ac trans]
+28.0 +12.7 39 +29 +41 жарко 1014.9 981.2
09 15.02 Ю 2 4000 м 3/0
[Ac trans]
+30.2 +16.1 43 +33 +41 душно 1011.2 977.8
12 15.02 В 1 4000 м мгла 4/4 750 м
[Cu Sc]
+27.6 +13.9 43 +30 +30 жарко 1011.0 977.3 +31.0
15 15.02 СВ 1 4000 м гроза, ливневой дождь 6/3 600 м
[Sc Ac trans Ci fib]
+22.8 +14.7 60 +26 +26 жарко 1012.8 978.5 2
18 15.02 ЮЗ 2 4000 м {гроза, дождь} 10/6 600 м
[Sc As op]
+16.0 +14.3 90 +16 +16 1016.2 944.9 7
00 16.02 штиль 0 3400 м 4/4 1000 м
[]
+18.0 +5.8 45 +18 +18 1016.0 981.1
03 16.02 ЮВ 2 2000 м мгла {гроза, дождь} 6/1 750 м
[Sc Ac trans]
+18.6 +17.0 90 +20 +23 1017.3 982.4 +17.3 8
06 16.02 ЮВ 1 4000 м мгла 1/0
[Ac trans]
+25.0 +17.0 61 +29 +46 душно 1016.2 982.1
09 16.02 В 1 4000 м 4/4 600 м
[Sc diur, vesp]
+27.6 +17.5 54 +32 +39 очень
душно
1012.0 978.3
12 16.02 С 1 4000 м ясно +25.2 +18.6 67 +30 +30 душно 1011.3 977.4 +28.0
15 16.02 штиль 0 4000 м ясно +22.0 +17.8 77 +27 +27 душно 1013.9 979.5
03 17.02 С 1 4000 м дымка 4/3 750 м
[Sc Ac trans]
+19.6 +16.3 81 +23 +27 комфорт 1015.8 981.1 +18.2
06 17.02 С 1 4000 м мгла ясно +25.0 +13.4 49 +27 +45 жарко 1014.6 980.5
09 17.02 З 2 4000 м 3/3 600 м
[Sc]
+27.4 +12.7 40 +29 +36 жарко 1010.6 976.9
12 17.02 СЗ 1 4000 м ясно +26.8 +14.5 47 +29 +29 жарко 1009.8 976.1 +27.8
15 17.02 штиль 0 4000 м ясно +22.2 +16.3 69 +26 +26 душно 1011.7 977.4

 

Местоположение метеостанции Райпур (Чхаттисгарх, Индия): широта 21.23 долгота 81.65 высота над уровнем моря 298 м.

В архиве по умолчанию представлена погода в Райпуре за последнюю неделю. Архивные данные за месяц целиком и за предыдущие месяцы, начиная с января 2011 года, Вы можете получить, выбрав интересующий диапазон дат из раскрывающегося списка и нажав кнопку "Ввод!".


*Определитесь, кто Вы:
робот инопланетянин человек

Внимание! Время в таблицах - всемирное. Для получения местного времени необходимо прибавить поправку, которая равна 5.5 ч.

Смотрите также архив погоды в соседних городах и на ближайших метеорологических станциях:

Погода в Дурге (Чхаттисгарх, Индия) (39 км)
Погода в Раджнандгаоне (Чхаттисгарх, Индия) (66 км)
Погода в Биласпуре (Чхаттисгарх, Индия) (111 км)
Погода в Райпур аэропорту (Чхаттисгарх, Индия) (111 км)
Погода в Малейнджкханде (Мадхья-Прадеш, Индия) (130 км)
Погода в Гондии (Махараштра, Индия) (153 км)
Погода в Пендра-роуде (Чхаттисгарх, Индия) (173 км)
Погода в Брамапури (Махараштра, Индия) (200 км)
Погода в Мандле (Мадхья-Прадеш, Индия) (200 км)
Погода в Титилагаре (Орисса, Индия) (200 км)

Пояснения к столбцам:

Ветер - указаны скорость ветра в м/с - средняя за 10 мин, порывы в срок и между сроками (в фигурных скобках) и направление, откуда дует ветер: С - северный, СВ - северо-восточный, В - восточный, ЮВ - юго-восточный, Ю - южный, ЮЗ - юго-западный, З - западный, СЗ - северо-западный.
Видимость - горизонтальная дальность видимости в метрах или километрах. При видимости от 1 до 10 км при отсутствии осадков обычно наблюдается дымка, при ухудшении видимости до 1 км и менее - туман. В сухую погоду видимость может ухудшаться дымом, пылью или мглою.
Явления - указаны атмосферные явления, наблюдавшиеся в срок или в последний час перед сроком; фигурными скобками обозначены явления, наблюдавшиеся между сроками (за 1-3 часа до срока); квадратными скобками обозначены град или гололедные отложения с указанием их диаметра в мм.
Облачность - указаны через наклонную черту общая и нижняя облачность в баллах и высота нижней границы облаков в метрах; квадратными скобками обозначены формы облаков: Ci - перистые, Cs - перисто-слоистые, Cc - перисто-кучевые, Ac - высококучевые, As - высокослоистые, Sc - слоисто-кучевые, Ns - слоисто-дождевые, Cu - кучевые, Cb - кучево-дождевые. Подробнее классификацию облаков см. в Атласе облаков (PDF).
T - Температура воздуха - температура, измеренная на высоте 2 м над землей.
Td - Температура точки росы - температура, при понижении до которой содержащийся в воздухе водяной пар достигнет насыщения.
f - Относительная влажность воздуха - влажноcть воздуха, измеренная на высоте 2 м над землей.
Te - Эффективная температура - температура, которую ощущает одетый по сезону человек в тени. Характеристика душности погоды. При расчете учитывается влияние влажности воздуха и скорости ветра на теплоощущения человека.
Tes - Эффективная температура на солнце - температура, которую ощущает человек, с поправкой на солнечный нагрев. Характеристика знойности погоды. Зависит от высоты солнца над горизонтом, облачности и скорости ветра. Ночью, в пасмурную погоду, а также при ветре 12 м/с и более поправка равна нулю.
P - Атмосферное давление - приведенное к уровню моря атмосферное давление.
Po - Атмосферное давление - измеренное на уровне метеостанции атмосферное давление.
Tmin - Минимальная температура - минимум температуры воздуха на высоте 2 м над землей.
Tmax - Максимальная температура - максимум температуры воздуха на высоте 2 м над землей.
R - Количество осадков - Количество выпавших осадков за период времени, мм. При наведении курсора мыши на число - период времени, за который выпало указанное количество осадков.
R24 - Количество осадков - Количество выпавших осадков за 24 часа, мм.
S - Снежный покров - Высота снежного покрова, см. При наведении курсора мыши на число - состояние снежного покрова и степень покрытия местности в баллах.